STARLINK-5198, 54099

Orbit data source: Space-Track

STARLINK-5198, 54099 is a payload satellite owned by SpaceX/Seattle (US) in LEO that was launched on Thu, 20 Oct 2022 UTC via an FALCON 9 launch vehicle from the Air Force Eastern Test Range (AFETR). Payload-class satellites include a variety of spacecraft equipped with specific instruments for various scientific and technological missions. These include communications satellites like Starlink; space stations such as the ISS; scientific satellites like the Hubble; Earth observation satellites from companies like Planet Labs, Umbra, and HawkEye 360; GPS; miniature CubeSats for education and research; and military/defense satellites.

Loading next visibility...
Identifier
54099, 2022-136BA
Orbit
LEO
Country
Flag of USUS
Related business
Manufacturer
SpaceX/Seattle
Mission
Operational Commercial Communications
Bus & Motor
STARLINK, Unknown motor
Mass
305 kg wet, ~290 kg dry
Launch date (UTC)
2022-10-20 (3 years ago)
Launch vehicle
FALCON 9
Launch site
Air Force Eastern Test Range (AFETR)
Object type
Payload
Rocket body
Debris
Shape & HBR
Box + 1 Pan, 10.1 m
Radar Cross Section
13.562 m², Large (>1 m²)

Expand to show TLE details & history
Last TLE update: 14 hours ago

TLE from 14 hours ago
0 STARLINK-5198
1 54099U 22136BA  25304.01335635  .00000175  00000-0  29095-4 0  9993
2 54099  53.2175 195.8178 0001411  93.5678 266.5476 15.08838835167410
Epoch: 2025-10-31T00:19Z
TLE epoch observation values (Epoch: 2025-10-31T00:19:13.988Z)
Latitude
0.00001°
Longitude
151.44563°
Altitude
540.703 km
Speed
7.593 km/s
True Right ascension
13h 03m 16s
True Declination
0° 00' 00"
Sunlit
Object was in daylight at epoch
Visualization orbit readout
Latitude
Unknown
Longitude
Unknown
Altitude
Unknown
Speed
Unknown
Apparent Right ascension
Unknown
Apparent Declination
Unknown
Sunlit
N/A
Visualization observer readout
Local Sidereal Time
09:52:06
Azimuth
Unknown
Elevation
Unknown
Doppler factor
Unknown
Orbital elements
Apogee altitude
540.968 km
Perigee altitude
539.016 km
Semi-major axis
6,918.129 km
Eccentricity
0.00014
Inclination
53.2175°
RAAN
195.8178°
Arg. of periapsis
93.5678°
True anomaly
266.53146°
Mean anomaly
266.5476°
Eccentric anomaly
266.53953°
Mean motion
3.7719 °/min
Orbital period
95.44 mins
BSTAR
0.000029095
Loading maneuver chart data...
Computing Atmospheric mass density...
Loading historical data...
Loading historical data...
Loading historical data...
Loading historical data...
Loading historical data...
Loading historical data...
Loading historical data...

Documentation

Showing up to 5 results
|